STARLINK-35381, 65826

Orbit data source: Space-Track

STARLINK-35381, 65826 is a payload satellite owned by SpaceX/Seattle (US) in LEO that was launched on Mon, 29 Sep 2025 UTC via an FALCON 9 launch vehicle from the Air Force Western Test Range (AFWTR). Payload-class satellites include a variety of spacecraft equipped with specific instruments for various scientific and technological missions. These include communications satellites like Starlink; space stations such as the ISS; scientific satellites like the Hubble; Earth observation satellites from companies like Planet Labs, Umbra, and HawkEye 360; GPS; miniature CubeSats for education and research; and military/defense satellites.

Loading next visibility...
Identifier
65826, 2025-221D
Orbit
LEO
Country
Flag of USUS
Related business
Manufacturer
SpaceX/Seattle
Mission
Operational spacecraft
Bus & Motor
STARLINK V2MO, Unknown motor
Mass
575 kg wet, ~530 kg dry
Launch date (UTC)
2025-09-29 (2 months ago)
Launch vehicle
FALCON 9
Launch site
Air Force Western Test Range (AFWTR)
Object type
Payload
Rocket body
Debris
Shape & HBR
Unknown shape, 17.7 m
Radar Cross Section
RCS unknown

Expand to show TLE details & history
Last TLE update: 16 hours ago

TLE from 16 hours ago
0 STARLINK-35381
1 65826U 25221D   25340.54288626  .00048383  00000-0  16332-2 0  9997
2 65826  53.1576 160.8978 0001083  88.3607 271.7517 15.30236138 11823
Epoch: 2025-12-06T13:01Z
TLE epoch observation values (Epoch: 2025-12-06T13:01:45.372Z)
Latitude
-0.0001°
Longitude
-110.11045°
Altitude
475.984 km
Speed
7.629 km/s
True Right ascension
10h 43m 35s
True Declination
0° 00' 00"
Sunlit
Object was in daylight at epoch
Visualization orbit readout
Latitude
Unknown
Longitude
Unknown
Altitude
Unknown
Speed
Unknown
Apparent Right ascension
Unknown
Apparent Declination
Unknown
Sunlit
N/A
Visualization observer readout
Local Sidereal Time
02:38:04
Azimuth
Unknown
Elevation
Unknown
Doppler factor
Unknown
Orbital elements
Apogee altitude
476.106 km
Perigee altitude
474.622 km
Semi-major axis
6,853.501 km
Eccentricity
0.00011
Inclination
53.1576°
RAAN
160.8978°
Arg. of periapsis
88.3607°
True anomaly
271.7393°
Mean anomaly
271.7517°
Eccentric anomaly
271.7455°
Mean motion
3.82538 °/min
Orbital period
94.11 mins
BSTAR
0.0016332
Loading maneuver chart data...
Computing Atmospheric mass density...
Loading historical data...
Loading historical data...
Loading historical data...
Loading historical data...
Loading historical data...
Loading historical data...
Loading historical data...

Documentation

Showing up to 5 results
|